Volver al catálogo

STARLINK-33673

ActivoComunicacionesVLEO
NORAD 63284·PAYLOAD·🇺🇸 United States

Lanzado Mar 15, 2025 desde Cape Canaveral Space Force Station

Loading…

Próximos Pases (próximas 24 horas)

TLE

ActualizadoSource: CelesTrak SupGP

Época: Sep 15, 2026, 03:27 UTC

1 63284C 25053V   26258.14423611 -.00038566  00000+0 -13971-2 0  2583
2 63284  42.9992 244.0490 0001318 269.0741 244.3605 15.27591904    13

Sigue STARLINK-33673 en tiempo real con AllMySat

Download on the App Store